Location: Spring Creek
(38.2870°N, 100.2160°W)
Time: 01:33:43
(UTC+00:00)

SL-16 R/B - Pass Details

Date: 08 May 2021
Orbit: 984 x 1007 km, 99.5° (Epoch: 24 June)

Event Time Altitude Azimuth Distance (km) Brightness Sun altitude
Exits shadow 08:23:45 67° 137° (SE) 1,086 2.5 -29.2°
Maximum altitude 08:24:36 79° 74° (ENE) 1,028 2.5 -29.1°
Drops below altitude 10° 08:30:53 10° 348° (NNW) 2,790 5.4 -28.5°
Sets 08:33:22 0° 348° (NNW) 3,742 6.2 -28.2°
